Location: *
(43.4667°N, 11.6833°E)
Time: 00:29:14
(UTC+00:00)

Cosmos 2026 Rocket - Pass Details

Date: 19 July 2019
Orbit: 939 x 1001 km, 82.9° (Epoch: 23 August)

Event Time Altitude Azimuth Distance (km) Brightness Sun altitude
Rises 20:48:35 0° 354° (N) 3,614 8.0 -17.0°
Reaches altitude 10° 20:51:06 10° 358° (N) 2,669 7.1 -17.3°
Maximum altitude 20:57:09 65° 80° (E) 1,037 4.0 -17.9°
Enters shadow 21:00:16 30° 153° (SSE) 1,644 4.6 -18.2°
